FW6934 Weather Reports


time (UTC)temp
C
wind
direction
speed
KPH
gust
KPH
rain 1hr
cm
rain 24hr
cm
rain mn
cm
humidity
%
barometer
mb
20260905165033 13 30 0.0 4.8 0.00 0.05 0.03 90 1005.4
20260905164504 13 18 1.6 4.8 0.00 0.05 0.03 90 1005.5
20260905164013 13 15 3.2 6.4 0.00 0.05 0.03 90 1005.4
20260905163523 13 67 3.2 6.4 0.00 0.05 0.03 90 1005.5
20260905163059 13 13 1.6 4.8 0.00 0.05 0.03 90 1005.5
20260905162519 13 9 1.6 4.8 0.00 0.05 0.03 90 1005.5
20260905162012 13 5 1.6 4.8 0.00 0.05 0.03 90 1005.4
20260905161547 13 41 0.0 6.4 0.00 0.05 0.03 90 1005.4
20260905161058 13 41 0.0 6.4 0.00 0.05 0.03 91 1005.4
20260905160506 13 39 4.8 6.4 0.00 0.05 0.03 91 1005.2
20260905160024 13 14 3.2 6.4 0.00 0.08 0.03 91 1005.3
20260905155529 13 14 1.6 6.4 0.00 0.08 0.03 91 1005.4
20260905155036 13 24 3.2 6.4 0.00 0.08 0.03 91 1005.4
20260905154544 13 63 0.0 4.8 0.00 0.08 0.03 91 1005.4
20260905154052 13 63 1.6 4.8 0.00 0.08 0.03 91 1005.4
20260905153556 12 86 0.0 4.8 0.00 0.08 0.03 91 1005.3
20260905153028 12 115 0.0 0.0 0.00 0.08 0.03 91 1005.3
20260905152534 12 115 0.0 0.0 0.00 0.08 0.03 91 1005.4
20260905152043 12 115 0.0 0.0 0.00 0.08 0.03 91 1005.4
20260905151607 12 115 0.0 0.0 0.00 0.08 0.03 91 1005.3
20260905151018 12 115 0.0 0.0 0.00 0.08 0.03 91 1005.4
20260905150524 12 115 0.0 0.0 0.00 0.08 0.03 91 1005.3
20260905150054 12 115 0.0 0.0 0.00 0.08 0.03 91 1005.4
20260905145553 12 115 0.0 0.0 0.00 0.08 0.03 91 1005.4
20260905145058 12 115 0.0 0.0 0.00 0.08 0.03 90 1005.4
20260905144535 12 115 0.0 0.0 0.00 0.08 0.03 90 1005.4
20260905144032 12 115 0.0 0.0 0.00 0.08 0.03 90 1005.5
20260905143542 12 115 0.0 0.0 0.00 0.08 0.03 90 1005.5
20260905143055 12 115 0.0 0.0 0.00 0.08 0.03 90 1005.4
20260905142558 12 115 0.0 0.0 0.00 0.08 0.03 90 1005.2
20260905142056 11 115 0.0 0.0 0.00 0.08 0.03 90 1005.3
20260905141509 11 115 0.0 0.0 0.00 0.08 0.03 90 1005.1
20260905141016 11 115 0.0 0.0 0.00 0.08 0.03 90 1005.1
20260905140524 11 115 0.0 0.0 0.00 0.08 0.03 90 1005.1
20260905140046 11 115 0.0 0.0 0.00 0.08 0.03 90 1005.1
20260905135544 11 115 0.0 0.0 0.00 0.08 0.03 90 1005.1
20260905135048 11 115 0.0 0.0 0.00 0.08 0.03 90 1005.0
20260905134527 11 115 0.0 0.0 0.00 0.08 0.03 90 1005.1
20260905134026 11 115 0.0 0.0 0.00 0.08 0.03 90 1005.1
20260905133534 11 115 0.0 0.0 0.00 0.08 0.03 90 1005.0
20260905133057 11 115 0.0 0.0 0.00 0.08 0.03 90 1005.1
20260905132502 11 115 0.0 0.0 0.00 0.08 0.03 90 1004.9
20260905132021 11 115 0.0 0.0 0.00 0.08 0.03 90 1005.0
20260905131554 11 115 0.0 0.0 0.00 0.08 0.03 90 1005.0
20260905131054 11 115 0.0 0.0 0.00 0.08 0.03 90 1005.0
20260905130601 11 115 0.0 0.0 0.00 0.08 0.03 90 1004.9
20260905130010 11 115 0.0 0.0 0.00 0.10 0.03 90 1004.8
20260905125512 11 115 0.0 0.0 0.00 0.10 0.03 90 1004.9
20260905125021 11 115 0.0 0.0 0.00 0.10 0.03 90 1004.8
20260905124557 11 115 0.0 0.0 0.00 0.10 0.03 90 1004.8
20260905124054 11 115 0.0 0.0 0.00 0.10 0.03 90 1004.8
20260905123600 11 115 0.0 0.0 0.00 0.10 0.03 90 1004.8
20260905123034 11 115 0.0 0.0 0.00 0.10 0.03 90 1004.7
20260905122540 11 115 0.0 0.0 0.00 0.10 0.03 90 1004.6
20260905122041 11 115 0.0 0.0 0.00 0.10 0.03 90 1004.7
20260905121508 11 115 0.0 0.0 0.00 0.10 0.03 90 1004.6
20260905121026 11 115 0.0 0.0 0.00 0.10 0.03 90 1004.6
20260905120523 11 115 0.0 0.0 0.00 0.10 0.03 90 1004.5
20260905120048 11 115 0.0 0.0 0.00 0.23 0.03 90 1004.6
20260905115558 11 115 0.0 0.0 0.00 0.23 0.03 90 1004.6
20260905115104 11 115 0.0 0.0 0.00 0.23 0.03 90 1004.7
20260905114542 11 115 0.0 0.0 0.00 0.23 0.03 90 1004.6
20260905114042 11 115 0.0 0.0 0.00 0.23 0.03 90 1004.6
20260905113552 11 115 0.0 0.0 0.00 0.23 0.03 90 1004.6
20260905113020 11 115 0.0 0.0 0.00 0.23 0.03 90 1004.6
20260905112529 11 115 0.0 0.0 0.00 0.23 0.03 90 1004.6
20260905112034 11 115 0.0 0.0 0.00 0.23 0.03 90 1004.5
20260905111554 11 115 0.0 0.0 0.00 0.23 0.03 90 1004.5
20260905111056 11 115 0.0 0.0 0.00 0.23 0.03 90 1004.4
20260905110515 11 115 0.0 0.0 0.00 0.23 0.03 90 1004.5
20260905110048 11 115 0.0 0.0 0.00 0.28 0.03 90 1004.4
20260905105548 11 115 0.0 0.0 0.00 0.28 0.03 90 1004.5
20260905105056 11 115 0.0 0.0 0.00 0.28 0.03 90 1004.4
20260905104522 11 115 0.0 0.0 0.00 0.28 0.03 90 1004.5
20260905104019 11 115 0.0 0.0 0.00 0.28 0.03 90 1004.6
20260905103530 11 115 0.0 0.0 0.00 0.28 0.03 90 1004.6
20260905103059 11 115 0.0 0.0 0.00 0.28 0.03 90 1004.5
20260905102559 11 115 0.0 0.0 0.00 0.28 0.03 90 1004.6
20260905102002 11 115 0.0 0.0 0.00 0.28 0.03 90 1004.6
20260905101540 12 115 0.0 0.0 0.00 0.28 0.03 90 1004.7
20260905101045 11 115 0.0 0.0 0.00 0.28 0.03 90 1004.7
20260905100546 12 115 0.0 0.0 0.00 0.28 0.03 90 1004.7
20260905100015 12 115 0.0 0.0 0.00 0.28 0.03 90 1004.7
20260905095528 12 115 0.0 0.0 0.03 0.28 0.03 90 1004.7
20260905095032 12 115 0.0 0.0 0.03 0.28 0.03 90 1004.6
20260905094602 12 115 0.0 0.0 0.03 0.28 0.03 90 1004.6
20260905094006 12 115 0.0 0.0 0.03 0.28 0.03 90 1004.6
20260905093511 12 115 0.0 0.0 0.03 0.28 0.03 90 1004.6
20260905093028 12 115 0.0 0.0 0.03 0.28 0.03 90 1004.6
20260905092534 11 115 0.0 0.0 0.03 0.28 0.03 90 1004.5
20260905092044 11 115 0.0 0.0 0.03 0.28 0.03 90 1004.5
20260905091508 11 115 0.0 0.0 0.03 0.28 0.03 90 1004.5
20260905091024 11 115 0.0 0.0 0.03 0.28 0.03 90 1004.4
20260905090531 11 115 0.0 0.0 0.03 0.28 0.03 90 1004.4
20260905090131 11 115 0.0 0.0 0.03 0.28 0.03 90 1004.4
20260905085504 11 115 0.0 0.0 0.00 0.25 0.00 90 1004.3
20260905085019 11 115 0.0 0.0 0.00 0.25 0.00 90 1004.4
20260905084538 11 115 0.0 0.0 0.00 0.25 0.00 90 1004.4
20260905084041 11 115 0.0 0.0 0.00 0.25 0.00 89 1004.3
20260905083549 11 115 0.0 0.0 0.00 0.25 0.00 89 1004.2
20260905083028 11 115 0.0 0.0 0.00 0.25 0.00 89 1004.2
20260905082528 11 115 0.0 0.0 0.00 0.25 0.00 89 1004.2
20260905082034 11 115 0.0 0.0 0.00 0.25 0.00 89 1004.1
20260905081600 11 115 0.0 0.0 0.00 0.25 0.00 89 1004.1
20260905081112 11 115 0.0 0.0 0.00 0.25 0.00 89 1004.1
20260905080514 11 115 0.0 0.0 0.00 0.25 0.00 89 1004.0
20260905080026 11 115 0.0 0.0 0.00 0.25 0.00 89 1004.1
20260905075536 11 115 0.0 0.0 0.00 0.25 0.00 89 1004.1
20260905075038 11 115 0.0 0.0 0.00 0.25 0.00 89 1004.1
20260905074509 11 115 0.0 0.0 0.00 0.25 0.00 89 1004.1
20260905074013 11 115 0.0 0.0 0.00 0.25 0.00 89 1004.0
20260905073528 11 115 0.0 0.0 0.00 0.25 0.00 89 1004.0
20260905073039 11 115 0.0 0.0 0.00 0.25 0.00 89 1004.0
20260905072545 11 115 0.0 0.0 0.00 0.25 0.00 89 1003.9
20260905072051 11 115 0.0 0.0 0.00 0.25 0.00 89 1004.0
20260905071520 11 115 0.0 0.0 0.00 0.25 0.00 89 1004.0
20260905071027 11 115 0.0 0.0 0.00 0.25 0.00 89 1004.0
20260905070531 11 115 0.0 0.0 0.00 0.25 0.00 89 1004.1
20260905070047 11 115 0.0 0.0 0.00 0.25 0.25 89 1004.0
20260905065544 11 115 0.0 0.0 0.00 0.25 0.25 88 1003.9
20260905065046 11 115 0.0 0.0 0.00 0.25 0.25 88 1003.8
20260905064558 11 115 0.0 0.0 0.00 0.25 0.25 88 1003.8
20260905064101 11 115 0.0 0.0 0.00 0.25 0.25 88 1003.8
20260905063506 11 115 0.0 1.6 0.00 0.25 0.25 88 1003.6
20260905063040 11 115 0.0 3.2 0.00 0.25 0.25 88 1003.7
20260905062545 11 115 1.6 4.8 0.00 0.25 0.25 88 1003.7
20260905062050 11 115 1.6 4.8 0.00 0.25 0.25 88 1003.5
20260905061537 11 115 1.6 4.8 0.00 0.25 0.25 88 1003.5
20260905061026 11 115 1.6 4.8 0.00 0.25 0.25 88 1003.5
20260905060537 11 115 0.0 0.0 0.00 0.25 0.25 88 1003.5
20260905060008 11 115 0.0 0.0 0.00 0.25 0.25 88 1003.6
20260905055524 11 115 0.0 0.0 0.00 0.25 0.25 88 1003.6
20260905055021 11 115 0.0 0.0 0.00 0.25 0.25 88 1003.6
20260905054548 11 115 0.0 0.0 0.00 0.25 0.25 88 1003.5
20260905054057 11 115 0.0 0.0 0.00 0.25 0.25 88 1003.6
20260905053558 11 115 0.0 0.0 0.00 0.25 0.25 88 1003.6
20260905053014 11 115 0.0 0.0 0.00 0.25 0.25 88 1003.6
20260905052526 11 115 0.0 0.0 0.00 0.25 0.25 88 1003.6
20260905052024 11 115 0.0 0.0 0.00 0.25 0.25 88 1003.7
20260905051556 11 115 0.0 0.0 0.00 0.25 0.25 88 1003.6
20260905051101 11 115 0.0 0.0 0.00 0.25 0.25 88 1003.6
20260905050508 12 115 0.0 0.0 0.00 0.25 0.25 88 1003.6
20260905050036 12 115 0.0 0.0 0.00 0.25 0.25 88 1003.6
20260905045542 12 115 0.0 0.0 0.00 0.25 0.25 88 1003.7
20260905045048 12 115 0.0 0.0 0.00 0.25 0.25 88 1003.6
20260905044509 12 115 0.0 0.0 0.00 0.25 0.25 88 1003.5
20260905044024 12 115 0.0 0.0 0.00 0.25 0.25 88 1003.6
20260905043524 12 115 0.0 0.0 0.00 0.25 0.25 87 1003.5
20260905043102 12 115 0.0 0.0 0.00 0.25 0.25 87 1003.4
20260905042552 12 115 0.0 0.0 0.00 0.25 0.25 87 1003.4
20260905042042 12 115 0.0 0.0 0.00 0.25 0.25 87 1003.4
20260905041532 12 115 0.0 0.0 0.00 0.25 0.25 87 1003.5
20260905041028 12 115 0.0 0.0 0.00 0.25 0.25 87 1003.4
20260905040536 12 115 0.0 0.0 0.00 0.25 0.25 87 1003.4
20260905040002 12 115 0.0 0.0 0.00 0.25 0.25 87 1003.3
20260905035516 12 115 0.0 0.0 0.00 0.25 0.25 87 1003.1
20260905035024 12 115 0.0 0.0 0.00 0.25 0.25 87 1003.1
20260905034607 12 101 0.0 0.0 0.00 0.25 0.25 87 1002.9
20260905034101 12 101 0.0 0.0 0.00 0.25 0.25 87 1003.0
20260905033508 12 101 0.0 0.0 0.00 0.25 0.25 87 1002.9
20260905033031 13 101 0.0 0.0 0.00 0.25 0.25 87 1003.0
20260905032541 13 101 0.0 0.0 0.00 0.25 0.25 87 1002.9
20260905032045 13 101 0.0 1.6 0.00 0.25 0.25 87 1002.7
20260905031514 13 101 0.0 1.6 0.00 0.25 0.25 87 1002.6
20260905031033 13 101 0.0 1.6 0.00 0.25 0.25 86 1002.7
20260905030534 13 101 0.0 0.0 0.00 0.25 0.25 86 1002.7
20260905030010 13 101 0.0 0.0 0.00 0.25 0.25 86 1002.7
20260905025511 13 101 0.0 0.0 0.00 0.25 0.25 86 1002.6
20260905025019 13 101 0.0 0.0 0.00 0.25 0.25 86 1002.5
20260905024600 13 101 0.0 0.0 0.00 0.25 0.25 86 1002.5
20260905024003 13 101 0.0 0.0 0.00 0.25 0.25 85 1002.5
20260905023510 13 101 0.0 3.2 0.00 0.25 0.25 85 1002.6
20260905023050 13 101 0.0 3.2 0.00 0.25 0.25 84 1002.5
20260905022555 13 101 1.6 3.2 0.00 0.25 0.25 84 1002.4
20260905022005 13 101 0.0 1.6 0.00 0.25 0.25 84 1002.5
20260905021540 13 101 0.0 1.6 0.00 0.25 0.25 83 1002.4
20260905021045 13 101 0.0 1.6 0.00 0.25 0.25 83 1002.4
20260905020553 14 101 0.0 3.2 0.00 0.25 0.25 83 1002.3
20260905020033 14 101 1.6 3.2 0.00 0.25 0.25 83 1002.2
20260905015538 14 101 0.0 1.6 0.00 0.25 0.25 83 1002.2
20260905015042 14 101 0.0 0.0 0.00 0.25 0.25 83 1002.1
20260905014507 14 101 0.0 0.0 0.00 0.25 0.25 83 1002.1
20260905014027 15 101 0.0 0.0 0.00 0.25 0.25 83 1002.1
20260905013536 15 101 0.0 3.2 0.00 0.25 0.25 83 1002.1
20260905013120 15 101 0.0 3.2 0.00 0.25 0.25 82 1002.0
20260905012517 15 101 0.0 0.0 0.00 0.25 0.25 82 1002.1
20260905012024 15 101 0.0 0.0 0.00 0.25 0.25 82 1002.0
20260905011557 15 101 0.0 3.2 0.00 0.25 0.25 82 1001.9
20260905011001 15 101 0.0 3.2 0.00 0.25 0.25 82 1002.0
20260905010510 15 101 0.0 1.6 0.00 0.25 0.25 81 1002.0
20260905010032 15 101 0.0 1.6 0.00 0.25 0.25 80 1002.0
20260905005537 15 101 0.0 1.6 0.00 0.25 0.25 80 1002.0
20260905005044 15 101 0.0 3.2 0.00 0.25 0.25 79 1002.0
20260905004522 15 101 0.0 4.8 0.00 0.25 0.25 78 1002.0
20260905004029 15 101 1.6 4.8 0.00 0.25 0.25 79 1002.0
20260905003539 16 355 0.0 4.8 0.00 0.25 0.25 79 1002.0
20260905003018 16 355 1.6 4.8 0.03 0.25 0.25 79 1001.9
20260905002526 15 42 0.0 4.8 0.03 0.25 0.25 80 1001.9
20260905002038 16 42 0.0 4.8 0.03 0.25 0.25 80 1001.9
20260905001502 16 67 1.6 4.8 0.03 0.25 0.25 80 1001.9
20260905001007 16 120 0.0 4.8 0.03 0.25 0.25 81 1002.1
20260905000522 16 120 0.0 4.8 0.03 0.25 0.25 81 1002.1
20260905000055 16 184 0.0 3.2 0.03 0.25 0.25 81 1002.2
20260904235600 16 184 0.0 4.8 0.03 0.25 0.25 81 1002.0
20260904235001 16 184 0.0 4.8 0.03 0.25 0.25 81 1002.1
20260904234545 16 212 0.0 4.8 0.03 0.25 0.25 81 1002.0
20260904234051 16 213 1.6 4.8 0.03 0.25 0.25 80 1001.9
20260904233559 16 202 1.6 4.8 0.03 0.25 0.25 81 1001.9
20260904233039 16 204 1.6 4.8 0.00 0.23 0.23 80 1001.8
20260904232548 17 172 0.0 4.8 0.00 0.23 0.23 79 1001.7
20260904232053 17 118 0.0 4.8 0.00 0.23 0.23 77 1001.7
20260904231506 17 138 0.0 6.4 0.00 0.23 0.23 77 1001.6
20260904231017 17 138 1.6 6.4 0.00 0.23 0.23 76 1001.7
20260904230529 17 247 1.6 8.0 0.00 0.23 0.23 75 1001.6
20260904230044 17 187 0.0 8.0 0.00 0.28 0.23 73 1001.6
20260904225551 17 177 3.2 8.0 0.00 0.28 0.23 72 1001.6
20260904225056 17 196 1.6 6.4 0.00 0.28 0.23 71 1001.4
20260904224533 17 242 1.6 11.3 0.00 0.28 0.23 70 1001.4
20260904224043 17 189 4.8 11.3 0.00 0.28 0.23 69 1001.4
20260904223548 17 125 1.6 6.4 0.00 0.28 0.23 70 1001.4
20260904223021 17 319 1.6 9.7 0.00 0.28 0.23 71 1001.4
20260904222530 17 200 1.6 9.7 0.00 0.28 0.23 68 1001.3
20260904222035 17 192 1.6 8.0 0.00 0.28 0.23 68 1001.4
20260904221554 17 167 0.0 8.0 0.00 0.28 0.23 66 1001.2
20260904221059 18 295 1.6 11.3 0.00 0.28 0.23 68 1001.3
20260904220508 18 175 3.2 14.5 0.00 0.28 0.23 67 1001.3
20260904220041 18 224 3.2 14.5 0.00 0.28 0.23 66 1001.2
20260904215547 18 207 4.8 16.1 0.00 0.28 0.23 68 1001.2
20260904215053 18 194 4.8 14.5 0.00 0.28 0.23 71 1001.3
20260904214529 18 154 4.8 8.0 0.00 0.28 0.23 66 1001.1
20260904214037 18 166 1.6 8.0 0.00 0.28 0.23 66 1001.1
20260904213543 18 113 1.6 8.0 0.00 0.28 0.23 65 1000.9
20260904213009 18 316 3.2 12.9 0.00 0.28 0.23 71 1000.9
20260904212516 17 102 3.2 12.9 0.00 0.28 0.23 68 1000.9
20260904212021 17 289 1.6 6.4 0.00 0.28 0.23 68 1001.0
20260904211600 17 240 1.6 8.0 0.00 0.28 0.23 75 1001.0
20260904211003 17 253 3.2 8.0 0.00 0.28 0.23 75 1001.0
20260904210509 17 245 1.6 6.4 0.00 0.28 0.23 75 1000.9
20260904210047 17 188 1.6 9.7 0.00 0.43 0.23 71 1000.9
20260904205557 17 106 1.6 9.7 0.00 0.43 0.23 69 1000.8
20260904205103 17 259 3.2 9.7 0.00 0.43 0.23 70 1000.8
20260904204539 17 55 0.0 6.4 0.00 0.43 0.23 72 1000.8
20260904204051 17 90 1.6 6.4 0.00 0.43 0.23 71 1000.8
20260904203557 17 42 1.6 6.4 0.00 0.43 0.23 71 1000.7
20260904203035 17 58 3.2 4.8 0.00 0.43 0.23 71 1000.7
20260904202541 17 19 1.6 12.9 0.00 0.43 0.23 72 1000.7
20260904202049 17 106 1.6 12.9 0.00 0.43 0.23 71 1000.8
20260904201524 18 38 4.8 11.3 0.00 0.43 0.23 74 1000.6
20260904201030 17 121 3.2 8.0 0.00 0.43 0.23 72 1000.8
20260904200538 17 304 0.0 4.8 0.00 0.43 0.23 75 1000.7
20260904200002 17 269 1.6 8.0 0.00 0.43 0.23 78 1000.7
20260904195523 17 52 1.6 8.0 0.00 0.43 0.23 77 1000.7
20260904195013 17 11 1.6 6.4 0.00 0.43 0.23 81 1000.8
20260904194603 17 360 1.6 4.8 0.00 0.43 0.23 76 1000.8
20260904194055 17 30 1.6 4.8 0.00 0.43 0.23 75 1001.0
20260904193603 17 355 1.6 6.4 0.00 0.43 0.23 76 1000.9
20260904193037 17 350 1.6 6.4 0.00 0.43 0.23 77 1000.9
20260904192546 17 238 1.6 4.8 0.00 0.43 0.23 81 1000.9
20260904192053 16 360 1.6 4.8 0.00 0.43 0.23 78 1001.0
20260904191519 16 39 0.0 4.8 0.00 0.43 0.23 80 1000.9
20260904191035 16 39 1.6 3.2 0.00 0.43 0.23 80 1001.0
20260904190543 16 40 0.0 4.8 0.00 0.43 0.23 80 1001.2
20260904190019 16 40 0.0 4.8 0.00 0.43 0.23 83 1001.1
20260904185525 16 41 1.6 8.0 0.00 0.43 0.23 83 1001.2
20260904185036 16 22 3.2 8.0 0.00 0.43 0.23 85 1001.1
20260904184615 16 42 0.0 4.8 0.00 0.43 0.23 86 1001.2
20260904184005 15 41 0.0 0.0 0.00 0.43 0.23 85 1001.1
20260904183514 15 41 0.0 0.0 0.00 0.43 0.23 84 1001.0
20260904183048 15 41 0.0 0.0 0.00 0.43 0.23 85 1000.9
20260904182559 15 42 0.0 0.0 0.00 0.43 0.23 84 1001.0
20260904182003 15 45 0.0 0.0 0.00 0.43 0.23 84 1001.0
20260904181540 15 45 0.0 0.0 0.00 0.43 0.23 86 1000.9
20260904181045 15 360 0.0 1.6 0.00 0.43 0.23 85 1000.8
20260904180556 15 360 0.0 1.6 0.00 0.43 0.23 86 1000.9
20260904180041 15 360 0.0 4.8 0.00 0.43 0.23 87 1000.8
20260904175530 15 360 1.6 4.8 0.00 0.43 0.23 87 1000.8
20260904175035 14 355 1.6 4.8 0.00 0.43 0.23 87 1000.7
20260904174505 14 355 0.0 0.0 0.00 0.43 0.23 87 1000.7
20260904174020 14 355 0.0 0.0 0.00 0.43 0.23 88 1000.7
20260904173526 14 355 0.0 0.0 0.00 0.43 0.23 87 1000.7
20260904173054 13 355 0.0 0.0 0.00 0.43 0.23 88 1000.7
20260904172556 13 306 0.0 4.8 0.00 0.43 0.23 88 1000.7
20260904172003 13 306 0.0 4.8 0.00 0.43 0.23 88 1000.7
20260904171608 13 306 0.0 3.2 0.00 0.43 0.23 88 1000.7
20260904171046 13 305 0.0 4.8 0.00 0.43 0.23 88 1000.6
20260904170552 13 301 1.6 4.8 0.00 0.43 0.23 89 1000.6
20260904170029 13 301 1.6 4.8 0.00 0.43 0.23 89 1000.6
20260904165533 13 301 0.0 4.8 0.03 0.43 0.23 89 1000.5